Погода в Приморском

Россия / Челябинская область     53°32′47″N   59°07′03″E
темп.,
°C
ветер,
м/с
пор.,
м/с
влажн.,
%
обл.,
%
осадки,
мм/ч
давл.,
гПа
погр.,
м
4 марта, чт
чт423:00−7юз239288 0.1 100235
02:00−9зюз23909 0.0 100221
05:00−11юз23894 0.0 100221
08:00−11зюз339063 0.0 100250
11:00−7зсз3108346 0.0 1003679
14:00−5з510770 0.0 10041011
17:00−5зюз5128015 0.0 1005703
20:00−8юз7158428 0.0 1005541
5 марта, пт
пт523:00−9ююз7148540 0.0 1005491
02:00−5ююз71684100 0.0 1001820
05:00−3юз71685100 0.0 1001935
08:00−4юз61586100 0.0 1002875
11:00−2юз71483100 0.0 10031184
14:00−1юз8138299 0.0 10031189
17:00−1юз6128599 0.0 10031099
20:00−3ююз5119093 0.0 1003337
6 марта, сб
сб623:00−4зсз5118172 0.0 1006304
02:00−9з228566 0.0 100924
05:00−12сз118778 0.0 101221
08:00−14з1288100 0.0 101320
11:00−10зюз118498 0.0 1013102
14:00−6ююз238196 0.0 1012252
17:00−6ю358897 0.0 1011176
20:00−8ююв2291100 0.0 101023
7 марта, вс
вс723:00−7зюз1297100 0.4 100863
02:00−7ссз2496100 1.1 1005126
05:00−8с3596100 1.9 1005197
08:00−9ссз2296100 0.4 100664
11:00−9сз238996 0.6 1008263
14:00−7сз34777 0.0 1010890
17:00−9сз587947 0.1 1011488
20:00−17зсз23840 0.0 101328
8 марта, пн
пн823:00−20зсз22863 0.0 101620
02:00−22зюз22872 0.0 101620
05:00−21ююз238712 0.0 101525
08:00−17ю5990100 0.0 1013264
11:00−11ююз81392100 0.2 1011589
14:00−6юз81480100 0.3 10091274
17:00−5юз6128299 0.3 1010968
20:00−7ююз5118869 0.0 1010334